Regional Weather Roundup
Issued by NWS

Home | Current Version | Previous Version | Text Only | Print | Product List | Glossary Off
Versions: 1 2 3 4 5 6 7 8 9 10 11 12 13 14 15 16 17 18 19 20 21 22 23 24 25 26 27 28 29 30 31 32 33 34 35 36 37 38 39 40 41 42 43 44 45 46 47 48 49 50

000
ASUS43 KBIS 282210
RWRND

NORTH DAKOTA REGIONAL WEATHER ROUNDUP
NATIONAL WEATHER SERVICE BISMARCK ND
400 PM CST FRI NOV 28 2014

NOTE: "FAIR" INDICATES FEW OR NO CLOUDS BELOW 12,000 FEET WITH NO
SIGNIFICANT WEATHER AND/OR OBSTRUCTIONS TO VISIBILITY.


NDZ001>003-009>011-017-282300-
NORTHWEST NORTH DAKOTA

CITY           SKY/WX    TMP DP  RH WIND       PRES   REMARKS
WILLISTON      CLEAR     25  19  78 SE3       29.47F
MINOT          MOCLDY    13   8  81 SE15      29.57F WCI  -3
MINOT AFB      CLOUDY    12   9  85 SE20      29.57F WCI  -6
$$

NDZ018>021-031>035-040>046-282300-
SOUTHWEST NORTH DAKOTA

CITY           SKY/WX    TMP DP  RH WIND       PRES   REMARKS
BISMARCK       MOCLDY    22  16  78 E9        29.61F WCI  12
DICKINSON      MOCLDY    40  32  73 S9        29.45F
GARRISON         N/A     18  14  84 SE13      29.56S WCI   5
HETTINGER ARPT CLOUDY    41  31  67 E5        29.51F
$$

NDZ004>008-012>016-024-026-027-054-282300-
NORTHEAST NORTH DAKOTA

CITY           SKY/WX    TMP DP  RH WIND       PRES   REMARKS
GRAND FORKS    CLOUDY    15   9  76 SE9       29.79F WCI   3
GRND FRKS AFB  CLOUDY    14  10  85 SE9       29.79S WCI   2
DEVILS LAKE    PTCLDY    12   1  62 SE14      29.68F WCI  -3
$$

NDZ022-023-025-028>030-036>039-047>053-282300-
SOUTHEAST NORTH DAKOTA

CITY           SKY/WX    TMP DP  RH WIND       PRES   REMARKS
FARGO          PTCLDY    18  10  71 E9        29.77F WCI   7
JAMESTOWN      CLOUDY    15   9  76 SE12      29.68F WCI   2
$$



USA.gov is the U.S. government's official web portal to all federal, state and local government web resources and services.